User: anonymous   Login
Location: Unspecified
(0.0000°N, 0.0000°E)
Time: 04:12:34
(UTC+00:00)
Language:

USA 215 - Orbit

View from above orbital plane
View from above orbital plane
View from above satellite
View from above satellite

Ground track
Ground track

The orbit data is extracted from the following two-line orbital elements,

1 37162U 10046A   18315.67769193 0.00000000  00000-0  00000-0 0    09
2 37162 122.9916 325.9088 0004731 227.6919 132.3081 13.41415615    06
Epoch (UTC): 11 November 2018 16:15:52
Eccentricity: 0.0004731
inclination: 122.9916°
perigee height: 1100 km
apogee height: 1107 km
right ascension of ascending node: 325.9088°
argument of perigee: 227.6919°
revolutions per day: 13.41415615
mean anomaly at epoch: 132.3081°
orbit number at epoch: 0

The dashed part of the orbit path shows where the satellite is in the earth's shadow,  

DLR